Overview Statistics Trail Chart Weather Telemetry Raw packets
 

This is the latest recevied weather packets stored in our database for station/object KD4EG. If no packets are shown the sender has not sent any weather packets the latest 10 day(s).

<< 56 57 58 59 60 61 62 >>
Time Temp. Humidity Pressure Rain* Wind** Luminosity Snow
1788264909 22.22° C 90% 1022.9 hPa 0 mm - 69 W/m² -
1788264604 22.22° C 91% 1023 hPa 0 mm - 52 W/m² -
1788264304 22.22° C 91% 1023 hPa 0 mm - 49 W/m² -
1788264024 22.22° C 92% 1022.9 hPa 0 mm - 43 W/m² -
1788263694 21.67° C 92% 1022.9 hPa 0 mm - 33 W/m² -
1788263392 21.67° C 92% 1022.7 hPa 0 mm - 32 W/m² -
1788263087 21.67° C 93% 1022.8 hPa 0 mm - 29 W/m² -
1788262785 21.67° C 93% 1022.7 hPa 0 mm - 26 W/m² -
1788262484 21.67° C 94% 1022.6 hPa 0 mm - 24 W/m² -
1788262180 21.67° C 94% 1022.8 hPa 0 mm - 18 W/m² -
1788261875 21.67° C 94% 1022.8 hPa 0 mm - 17 W/m² -
1788261570 21.67° C 94% 1022.7 hPa 0 mm - 16 W/m² -
1788261269 21.67° C 94% 1022.6 hPa 0 mm - 14 W/m² -
1788260967 21.11° C 95% 1022.6 hPa 0 mm - 11 W/m² -
1788260663 21.11° C 94% 1022.8 hPa 0 mm - 8 W/m² -
1788260359 21.11° C 94% 1022.5 hPa 0 mm - 5 W/m² -
1788260054 21.11° C 94% 1022.4 hPa 0 mm - 1 W/m² -
1788259750 21.67° C 94% 1022.2 hPa 0 mm - 1 W/m² -
1788259445 21.67° C 94% 1022.4 hPa 0 mm - 0 W/m² -
1788259141 21.11° C 94% 1022 hPa 0 mm - 0 W/m² -
1788258841 21.67° C 94% 1022 hPa 0 mm - 0 W/m² -
1788258535 21.67° C 94% 1022.3 hPa 0 mm - 0 W/m² -
1788258229 21.67° C 94% 1022.2 hPa 0 mm - 0 W/m² -
1788257925 21.67° C 94% 1021.9 hPa 0 mm - 0 W/m² -
1788257619 21.67° C 94% 1021.8 hPa 0 mm - 0 W/m² -

* Rain latest hour (hover to see other rain measurements)
** Current wind speed in m/s (hover to see current wind gust speed)